NK7E-2 Weather Reports


time (UTC)temp
C
wind
direction
speed
KPH
gust
KPH
rain 1hr
cm
rain 24hr
cm
rain mn
cm
humidity
%
barometer
mb
20260506014516 19 270 12.9 19.3 0.00 0.66 0.36 36 1016.6
20260506013516 20 270 14.5 22.5 0.00 0.66 0.36 34 1016.6
20260506012516 20 270 12.9 20.9 0.00 0.66 0.36 33 1016.6
20260506011516 21 270 14.5 22.5 0.00 0.66 0.36 31 1016.5
20260506010516 21 270 16.1 22.5 0.00 0.66 0.36 28 1016.4
20260506005516 21 248 14.5 20.9 0.00 0.66 0.36 28 1016.5
20260506004516 21 248 16.1 22.5 0.00 0.66 0.36 29 1016.4
20260506003516 21 270 14.5 22.5 0.00 0.66 0.36 30 1016.4
20260506002516 21 248 17.7 25.7 0.00 0.66 0.36 29 1016.3
20260506001516 21 270 16.1 29.0 0.00 0.66 0.36 29 1016.3
20260506000516 21 248 14.5 25.7 0.00 0.66 0.36 28 1016.6
20260505235516 22 248 16.1 29.0 0.00 0.66 0.36 28 1016.6
20260505234516 21 248 16.1 29.0 0.00 0.66 0.36 27 1016.6
20260505233516 22 248 14.5 25.7 0.00 0.66 0.36 26 1016.8
20260505232516 22 248 19.3 38.6 0.00 0.66 0.36 25 1016.5
20260505231516 22 248 20.9 37.0 0.00 0.66 0.36 25 1016.9
20260505230516 22 270 20.9 32.2 0.00 0.66 0.36 24 1016.6
20260505225516 22 270 19.3 33.8 0.00 0.66 0.36 25 1016.4
20260505224516 22 248 20.9 33.8 0.00 0.66 0.36 31 1016.4
20260505223516 22 270 17.7 33.8 0.00 0.66 0.36 32 1016.4
20260505222516 22 248 22.5 40.2 0.00 0.66 0.36 31 1016.8
20260505221516 22 248 22.5 37.0 0.00 0.66 0.36 33 1017.0
20260505220516 22 248 17.7 30.6 0.00 0.66 0.36 34 1016.8
20260505215516 22 248 17.7 29.0 0.00 0.66 0.36 34 1017.0
20260505214516 22 248 20.9 33.8 0.00 0.66 0.36 35 1017.1
20260505213516 22 225 14.5 22.5 0.00 0.66 0.36 38 1017.2
20260505212516 22 248 20.9 32.2 0.00 0.66 0.36 36 1017.4
20260505211516 22 248 16.1 27.4 0.00 0.66 0.36 35 1017.3
20260505210516 22 248 11.3 22.5 0.00 0.66 0.36 37 1017.2
20260505205516 22 225 12.9 30.6 0.00 0.66 0.36 34 1017.3
20260505204516 21 248 12.9 27.4 0.00 0.66 0.36 37 1017.6
20260505203516 21 225 14.5 33.8 0.00 0.66 0.36 38 1017.6
20260505202516 21 270 14.5 25.7 0.00 0.66 0.36 40 1017.6
20260505201516 21 270 20.9 41.8 0.00 0.66 0.36 40 1018.1
20260505200516 21 225 14.5 25.7 0.00 0.66 0.36 39 1018.0
20260505195516 21 248 20.9 32.2 0.00 0.66 0.36 42 1017.9
20260505194516 21 270 16.1 29.0 0.00 0.66 0.36 43 1018.0
20260505193516 21 248 14.5 29.0 0.00 0.66 0.36 44 1018.0
20260505192516 21 248 16.1 27.4 0.00 0.66 0.36 41 1018.0
20260505191516 21 225 12.9 22.5 0.00 0.66 0.36 44 1018.1
20260505190516 20 248 19.3 38.6 0.00 0.66 0.36 47 1018.4
20260505185516 20 248 16.1 27.4 0.00 0.66 0.36 48 1018.2
20260505184516 20 248 17.7 30.6 0.00 0.66 0.36 48 1018.4
20260505183516 20 248 9.7 24.1 0.00 0.66 0.36 47 1018.7
20260505182516 19 225 6.4 19.3 0.00 0.66 0.36 53 1018.8
20260505181516 19 248 12.9 22.5 0.00 0.66 0.36 54 1019.1
20260505180516 19 225 11.3 22.5 0.03 0.66 0.36 54 1018.9
20260505175516 19 248 11.3 27.4 0.03 0.66 0.36 54 1018.8
20260505174516 18 248 12.9 20.9 0.03 0.66 0.36 56 1018.9
20260505173516 18 248 8.0 20.9 0.03 0.66 0.36 57 1019.0
20260505172515 18 248 12.9 25.7 0.03 0.66 0.36 56 1019.0
20260505171516 18 225 8.0 19.3 0.03 0.66 0.36 60 1019.0
20260505170516 18 225 6.4 16.1 0.00 0.64 0.33 60 1019.0
20260505165515 17 225 8.0 17.7 0.00 0.64 0.33 62 1018.9
20260505164515 17 225 3.2 9.7 0.00 0.64 0.33 68 1018.8
20260505163515 16 248 6.4 14.5 0.00 0.64 0.33 68 1018.7
20260505162515 16 225 6.4 20.9 0.00 0.64 0.33 68 1018.5
20260505161515 16 225 8.0 17.7 0.00 0.64 0.33 67 1018.3
20260505160517 16 135 4.8 12.9 0.00 0.64 0.33 68 1018.5
20260505152517 15 248 4.8 11.3 0.00 0.64 0.33 72 1018.0
20260505151517 15 270 8.0 11.3 0.00 0.64 0.33 71 1017.9
20260505150517 15 225 3.2 6.4 0.00 0.64 0.33 70 1017.8
20260505140518 15 90 6.4 11.3 0.00 0.64 0.33 73 1018.2
20260505124517 14 135 4.8 9.7 0.03 0.61 0.30 74 1017.5
20260505123517 14 135 3.2 9.7 0.03 0.61 0.30 75 1017.3
20260505122517 14 90 8.0 14.5 0.03 0.61 0.30 76 1017.1
20260505121517 13 158 3.2 9.7 0.05 0.61 0.30 77 1017.3
20260505120517 13 45 3.2 9.7 0.05 0.61 0.30 80 1017.0
20260505115517 13 0.0 1.6 0.03 0.58 0.28 81 1017.9
20260505114517 13 225 1.6 6.4 0.03 0.58 0.28 77 1018.0
20260505113517 13 293 1.6 6.4 0.03 0.58 0.28 75 1018.1
20260505112517 14 225 1.6 4.8 0.03 0.58 0.28 75 1018.7
20260505111517 14 248 1.6 6.4 0.00 0.56 0.25 75 1018.8
20260505110517 14 0.0 1.6 0.03 0.56 0.25 79 1018.3
20260505101517 13 90 3.2 6.4 0.10 0.56 0.25 76 1019.4
20260505100517 13 90 4.8 9.7 0.08 0.53 0.23 76 1019.7
20260505095517 14 90 3.2 6.4 0.05 0.51 0.20 78 1020.0
20260505094517 14 90 6.4 11.3 0.05 0.48 0.18 77 1020.2
20260505093517 14 90 8.0 14.5 0.05 0.48 0.18 78 1020.2
20260505092517 13 90 6.4 12.9 0.05 0.48 0.18 80 1020.4
20260505091517 14 90 6.4 14.5 0.05 0.46 0.15 80 1020.9
20260505090517 13 90 6.4 11.3 0.10 0.46 0.15 81 1020.8
20260505085517 13 113 3.2 9.7 0.13 0.46 0.15 81 1021.0
20260505084517 14 90 6.4 12.9 0.10 0.43 0.13 81 1021.3
20260505083516 13 113 6.4 12.9 0.13 0.43 0.13 81 1021.2
20260505082516 14 90 6.4 11.3 0.10 0.41 0.10 80 1021.6
20260505081516 14 113 6.4 11.3 0.10 0.41 0.10 77 1021.9
20260505080516 14 113 4.8 11.3 0.05 0.36 0.05 75 1022.0
20260505075516 15 158 3.2 8.0 0.05 0.33 0.03 74 1022.2
20260505074516 15 113 4.8 11.3 0.05 0.33 0.03 73 1022.2
20260505073516 15 113 1.6 4.8 0.05 0.30 0.00 75 1022.1
20260505072516 15 90 3.2 4.8 0.08 0.30 0.00 76 1021.8
20260505071516 15 113 4.8 6.4 0.10 0.30 0.00 76 1021.8
20260505070517 14 90 3.2 4.8 0.10 0.30 0.00 79 1021.5
20260505065517 15 113 4.8 9.7 0.08 0.28 0.28 74 1021.9
20260505064517 15 135 4.8 8.0 0.08 0.28 0.28 75 1022.1
20260505063517 15 0.0 1.6 0.05 0.25 0.25 77 1021.9
20260505062517 15 90 3.2 6.4 0.05 0.23 0.23 76 1021.7
20260505061517 15 135 6.4 12.9 0.03 0.20 0.20 69 1021.8
20260505060517 15 90 6.4 9.7 0.03 0.20 0.20 70 1021.3
20260505055517 15 113 4.8 8.0 0.03 0.20 0.20 72 1021.6
20260505054517 15 90 6.4 9.7 0.03 0.20 0.20 70 1021.7
20260505053517 15 113 6.4 12.9 0.03 0.20 0.20 69 1021.8
20260505052517 16 113 4.8 11.3 0.00 0.18 0.18 65 1022.0
20260505051517 16 135 3.2 8.0 0.00 0.18 0.18 63 1021.9
20260505050517 16 90 3.2 6.4 0.00 0.18 0.18 62 1021.8
20260505041516 16 90 6.4 16.1 0.00 0.18 0.18 62 1021.6
20260505040516 16 113 12.9 22.5 0.00 0.18 0.18 61 1021.3
20260505035516 16 90 8.0 20.9 0.05 0.18 0.18 60 1021.3
20260505034516 16 113 9.7 22.5 0.05 0.18 0.18 57 1021.3
20260505033516 16 135 8.0 19.3 0.08 0.18 0.18 57 1021.5
20260505032517 16 135 9.7 20.9 0.08 0.18 0.18 58 1021.8
20260505031516 15 90 11.3 20.9 0.10 0.18 0.18 69 1021.8
20260505030516 15 90 14.5 20.9 0.15 0.18 0.18 73 1021.6
20260505025516 15 90 11.3 17.7 0.13 0.13 0.13 72 1021.7
20260505024516 15 90 8.0 12.9 0.13 0.13 0.13 71 1021.7
20260505023516 15 90 9.7 17.7 0.10 0.10 0.10 71 1021.1
20260505022517 15 90 9.7 16.1 0.10 0.10 0.10 71 1021.4
20260505021516 15 90 8.0 12.9 0.08 0.08 0.08 68 1021.5
20260505020516 16 113 8.0 16.1 0.03 0.03 0.03 61 1021.6
20260505015516 17 90 6.4 11.3 0.00 0.00 0.00 56 1021.3